Home   Weather   Elbasan   Past weeks
Flag for Albania

Past Weather in Elbasan, Albania — Yesterday and Last 2 Weeks

Now
63 °F

Clear.


Feels Like: 63 °F
Forecast: 80 / 57 °F
Wind: 1 mph from North

Location: Tirana Airport

Current Time: Oct 17, 2019 at 8:31:00 pm

Latest Report: Oct 17, 2019 at 7:50 pm


Visibility: 10 mi

Pressure: 30.07 "Hg

Humidity: 88%

Dew Point: 59 °F

Location of ElbasanLocation

Past Weather in Elbasan — Graph

°F

Elbasan Temperature Yesterday

Maximum temperature yesterday: 82 °F (at 1:50 pm)
Minimum temperature yesterday: 55 °F (at 4:20 am)
Average temperature yesterday: 65 °F

High & Low Weather Summary for the Past Weeks

 TemperatureHumidityPressure
High86 °F (Oct 10, 12:50 pm)100% (Oct 3, 11:50 pm)30.21 "Hg (Oct 3, 11:50 pm)
Low48 °F (Oct 7, 6:50 am)34% (Oct 7, 1:50 pm)29.71 "Hg (Oct 3, 5:20 am)
Average65 °F77%30.00 "Hg
* Reported Oct 2 7:20 pm — Oct 17 7:20 pm, Elbasan. Weather by CustomWeather, © 2019

Note: Actual official high and low records may vary slightly from our data, if they occured in-between our weather recording intervals... More about our weather records

Advertising

Elbasan Weather History for the Previous 24 Hours

Scroll right to see more
 ConditionsComfort  
Time TempWeatherWind HumidityBarometerVisibility
7:20 pm
Thu, Oct 17
64 °FClear.1 mph88%30.07 "Hg10 mi
6:50 pm66 °FClear.2 mph83%30.07 "Hg10 mi
6:20 pm68 °FClear.5 mph78%30.07 "Hg10 mi
4:50 pm73 °FSunny.7 mph53%30.04 "Hg10 mi
4:20 pm77 °FSunny.8 mph57%30.04 "Hg10 mi
3:50 pm77 °FPassing clouds.8 mph54%30.04 "HgN/A
3:20 pm77 °FPassing clouds.6 mph54%30.04 "HgN/A
2:50 pm77 °FSunny.6 mph54%30.04 "Hg10 mi
2:20 pm77 °FPassing clouds.5 mph54%30.04 "HgN/A
1:50 pm79 °FSunny.3 mph54%30.07 "Hg10 mi
1:20 pm77 °FSunny.1 mph54%30.07 "Hg10 mi
12:50 pm73 °FSunny.2 mph61%30.07 "Hg10 mi
12:20 pm73 °FSunny.2 mph61%30.07 "Hg10 mi
11:50 am73 °FSunny.2 mph57%30.09 "Hg10 mi
11:20 am72 °FSunny.2 mph61%30.09 "Hg10 mi
10:50 am72 °FSunny.1 mph61%30.09 "Hg10 mi
10:20 am70 °FSunny.2 mph64%30.09 "Hg10 mi
9:50 am66 °FSunny.3 mph73%30.09 "Hg10 mi
9:20 am64 °FSunny.3 mph78%30.09 "Hg10 mi
8:50 am63 °FSunny.3 mph77%30.09 "Hg10 mi
8:20 am59 °FSunny.No wind88%30.07 "Hg10 mi
7:50 am55 °FClear.2 mph94%30.07 "Hg5 mi
7:20 am52 °FClear.2 mph94%30.07 "Hg5 mi
6:50 am54 °FClear.3 mph94%30.07 "Hg10 mi
6:20 am54 °FClear.3 mph94%30.07 "Hg10 mi
5:50 am54 °FClear.2 mph94%30.07 "Hg10 mi
4:50 am55 °FClear.3 mph94%30.07 "Hg10 mi
4:20 am55 °FClear.3 mph94%30.07 "Hg10 mi
3:50 am55 °FClear.5 mph94%30.07 "Hg10 mi
3:20 am54 °FClear.5 mph94%30.07 "Hg10 mi
2:50 am54 °FClear.1 mph94%30.07 "Hg10 mi
2:20 am55 °FClear.1 mph94%30.07 "Hg10 mi
1:50 am55 °FClear.3 mph94%30.07 "Hg10 mi
1:20 am55 °FClear.3 mph94%30.07 "Hg10 mi
12:50 am57 °FClear.2 mph94%30.07 "Hg10 mi
12:20 am55 °FClear.1 mph94%30.07 "Hg10 mi
11:50 pm
Wed, Oct 16
57 °FClear.1 mph94%30.07 "Hg10 mi
11:20 pm57 °FClear.2 mph94%30.07 "Hg10 mi
10:50 pm57 °FClear.3 mph94%30.07 "Hg10 mi
10:20 pm59 °FClear.2 mph94%30.07 "Hg10 mi
9:50 pm59 °FClear.2 mph94%30.04 "Hg4 mi
9:20 pm61 °FClear.1 mph94%30.04 "Hg4 mi
8:50 pm61 °FClear.2 mph88%30.04 "Hg10 mi
8:20 pm63 °FClear.2 mph88%30.04 "Hg10 mi
Weather by CustomWeather, © 2019

See weather overview